STARLINK-1349 (45587 NORAD) Tracking and Keplerian Element Data

This shows tracking and keplerian element data for the satellite.

Feedback or suggestion? Click here.




ElementValue
Catalog45587
NameSTARLINK-1349
Epoch Orbit1376
Epoch Day197.16667824
Epoch Year2020
RAAN349.9215
Inclination52.9993
Eccentricity0.0001627
Argument of Perigee40.3256
Mean Anonmoly355.0589
Mean Motion15.62836505
Decay Rate-0.00101884
L11 45587U 20025BJ 20197.16667824 -.00101884 00000-0 -11171-2 0 9994
L22 45587 52.9993 349.9215 0001627 40.3256 355.0589 15.62836505 13760

Live tracking and technical data element details for STARLINK-1349 (NORAD 45587). STARLINK-1349 can be tracked NOW for your location showing map with azimuth and elevation plus other details from your city location.

Track the satellite on the map from your city or location and see movement details for azimuth, elevation, latitude, longitude, range, height, and movement on the map or in text.







IsCatalogInMostPopularTable: catalog: 45587, numindb: 30
Update: records affected: 1



GetName: 45587 STARLINK-1349

Hit Count: updated at: Thu, 16 Jul 2020 04:05:16 GMT